Weather reports worldwide

Advertisment
Isle Of Portland, United Kingdom (3857): temperature & dewpoint: 11.09.2019 22:00:00 - 17.09.2019 22:00:00 (BST)Isle Of Portland, United Kingdom (3857): wind speed & gusts: 11.09.2019 22:00:00 - 17.09.2019 22:00:00 (BST)Isle Of Portland, United Kingdom (3857): wind direction: 11.09.2019 22:00:00 - 17.09.2019 22:00:00 (BST)Isle Of Portland, United Kingdom (3857): reduced air pressure: 11.09.2019 22:00:00 - 17.09.2019 22:00:00 (BST)Isle Of Portland, United Kingdom (3857): visibility: 11.09.2019 22:00:00 - 17.09.2019 22:00:00 (BST)Isle Of Portland, United Kingdom (3857): precipitation: 11.09.2019 22:00:00 - 17.09.2019 22:00:00 (BST)
Date & Time tt [°C] td [°C] ff [km/h] ff [kn] fx [km/h] fx [kn] dd ppp [hPa] vv [km] rr [mm]
17.09.2019 22:00:00 14,7 8,4 21 11 - - NNE 1026,4 45 0,0
17.09.2019 21:00:00 15,1 8,8 21 11 - - NNE 1025,9 35 0,0
17.09.2019 20:00:00 15,8 8,6 21 11 - - NNE 1025,5 45 0,0
17.09.2019 19:00:00 17,1 8,5 16 9 - - NNE 1025,1 35 0,0
17.09.2019 18:00:00 18,3 8,3 18 10 - - NNE 1024,9 35 0,0
17.09.2019 17:00:00 19,0 8,1 18 10 - - NNE 1024,8 30 0,0
17.09.2019 16:00:00 19,3 8,7 15 8 - - NE 1024,9 40 0,0
17.09.2019 15:00:00 19,2 8,5 15 8 - - NE 1025,2 35 0,0
17.09.2019 14:00:00 19,0 8,6 15 8 - - N 1025,4 35 0,0
17.09.2019 13:00:00 18,5 8,9 13 7 - - N 1025,5 35 0,0
17.09.2019 12:00:00 17,1 8,1 16 9 - - NE 1025,7 30 0,0
17.09.2019 11:00:00 16,6 9,3 18 10 - - NNE 1025,9 40 0,0
17.09.2019 10:00:00 15,0 8,0 26 14 - - NE 1025,7 21 0,0
17.09.2019 09:00:00 13,4 8,4 34 18 - - NE 1025,3 40 0,0
17.09.2019 08:00:00 13,1 8,7 29 16 - - NE 1024,8 35 0,0
17.09.2019 07:00:00 13,2 9,7 22 12 - - NE 1024,3 35 0,0
17.09.2019 06:00:00 13,8 10,5 22 12 - - NE 1023,8 50 0,0
17.09.2019 05:00:00 14,2 11,8 21 11 - - NNE 1023,6 24 0,0
17.09.2019 04:00:00 15,2 12,8 24 13 - - NE 1023,5 17 0,0
17.09.2019 03:00:00 15,7 14,1 26 14 - - ENE 1023,1 16 0,0
17.09.2019 02:00:00 15,9 14,6 22 12 - - ENE 1023,0 17 0,0
17.09.2019 01:00:00 16,3 15,6 18 10 - - NE 1023,1 13 0,0
17.09.2019 00:00:00 16,5 16,3 9 5 - - N 1023,3 13 0,0
16.09.2019 23:00:00 16,5 16,4 11 6 - - NNW 1023,2 14 0,0
16.09.2019 22:00:00 16,8 16,7 8 4 - - NW 1023,2 14 0,0
16.09.2019 21:00:00 16,5 16,4 5 3 - - W 1022,8 8 0,2
16.09.2019 20:00:00 16,8 16,6 9 5 - - W 1022,6 2,0 0,4
16.09.2019 19:00:00 16,9 16,1 11 6 - - WNW 1022,5 7 0,0
16.09.2019 18:00:00 17,2 15,7 9 5 - - WNW 1022,3 50 0,0
16.09.2019 17:00:00 17,8 15,8 11 6 - - WSW 1022,3 35 0,0
16.09.2019 16:00:00 18,5 15,7 15 8 - - W 1022,5 40 0,0
16.09.2019 15:00:00 17,7 15,4 18 10 - - W 1022,7 35 0,0
16.09.2019 14:00:00 18,3 15,5 22 12 - - WNW 1022,9 30 0,0
16.09.2019 13:00:00 17,9 15,1 16 9 - - W 1023,0 45 0,0
16.09.2019 12:00:00 17,2 14,8 15 8 - - W 1023,2 45 0,0
16.09.2019 11:00:00 16,8 14,7 16 9 - - WNW 1023,5 40 0,0
16.09.2019 10:00:00 16,7 14,7 13 7 - - W 1023,4 40 0,0
16.09.2019 09:00:00 15,9 14,6 11 6 - - W 1023,1 50 0,0
16.09.2019 08:00:00 15,0 14,2 13 7 - - WNW 1022,7 45 0,0
16.09.2019 07:00:00 14,2 13,7 5 3 - - NW 1022,3 35 0,0
16.09.2019 06:00:00 14,2 13,8 11 6 - - N 1022,2 50 0,0
16.09.2019 05:00:00 14,4 14,0 18 10 - - NNW 1022,4 50 0,0
16.09.2019 04:00:00 14,4 14,0 16 9 - - NNW 1022,9 30 0,0
16.09.2019 03:00:00 14,8 14,2 11 6 - - NNW 1023,0 20 0,0
16.09.2019 02:00:00 15,1 14,6 13 7 - - NNW 1023,4 16 0,0
16.09.2019 01:00:00 15,3 14,6 15 8 - - NNW 1023,5 17 0,0
16.09.2019 00:00:00 15,6 14,6 21 11 - - NNW 1023,6 22 0,0
15.09.2019 23:00:00 15,6 14,4 15 8 - - N 1024,2 20 0,0
15.09.2019 22:00:00 16,4 15,7 15 8 - - NNW 1024,2 16 0,0
15.09.2019 21:00:00 16,5 15,3 15 8 - - NNW 1024,2 23 0,0
15.09.2019 20:00:00 16,3 14,6 15 8 - - NW 1024,3 35 0,0
15.09.2019 19:00:00 17,1 14,6 18 10 - - WNW 1023,7 35 0,0
15.09.2019 18:00:00 17,7 14,9 18 10 - - W 1024,0 30 0,0
15.09.2019 17:00:00 18,4 14,3 16 9 - - W 1024,3 28 0,0
15.09.2019 16:00:00 18,7 14,1 15 8 - - W 1024,8 30 0,0
15.09.2019 15:00:00 19,0 14,5 15 8 - - W 1025,2 40 0,0
15.09.2019 14:00:00 18,7 14,0 16 9 - - W 1025,7 30 0,0
15.09.2019 13:00:00 18,0 13,7 15 8 - - W 1025,8 45 0,0
15.09.2019 12:00:00 17,3 13,5 13 7 - - WNW 1026,2 26 0,0
15.09.2019 11:00:00 17,0 13,5 13 7 - - NW 1026,6 29 0,0
15.09.2019 10:00:00 15,8 12,9 13 7 - - NW 1026,7 40 0,0
15.09.2019 09:00:00 16,0 13,2 13 7 - - NW 1026,7 40 0,0
15.09.2019 08:00:00 15,2 12,7 16 9 - - NW 1026,3 50 0,0
15.09.2019 07:00:00 14,3 12,2 13 7 - - NW 1026,4 45 0,0
15.09.2019 06:00:00 13,3 10,7 5 3 - - NW 1026,4 30 0,0
15.09.2019 05:00:00 13,5 10,6 9 5 - - N 1026,5 35 0,0
15.09.2019 04:00:00 14,7 10,2 16 9 - - N 1026,7 50 0,0
15.09.2019 03:00:00 14,4 10,2 15 8 - - N 1026,9 40 0,0
15.09.2019 02:00:00 14,4 11,4 13 7 - - NNW 1027,4 40 0,0
15.09.2019 01:00:00 14,3 13,0 13 7 - - NNW 1027,9 25 0,0
15.09.2019 00:00:00 14,8 14,1 13 7 - - NNW 1028,0 17 0,0
14.09.2019 23:00:00 14,9 14,2 11 6 - - NNW 1028,7 14 0,0
14.09.2019 22:00:00 15,0 14,0 8 4 - - NNW 1028,9 23 0,0
14.09.2019 21:00:00 14,8 13,6 11 6 - - NW 1029,3 35 0,0
14.09.2019 20:00:00 14,9 13,4 5 3 - - NNE 1029,4 25 0,0
14.09.2019 19:00:00 15,7 13,4 5 3 - - ESE 1029,4 26 0,0
14.09.2019 18:00:00 16,6 13,6 8 4 - - SE 1029,7 24 0,0
14.09.2019 17:00:00 17,5 13,6 15 8 - - ESE 1029,8 24 0,0
14.09.2019 16:00:00 18,4 14,3 16 9 - - ESE 1030,4 23 0,0
14.09.2019 15:00:00 18,4 13,8 16 9 - - E 1031,1 30 0,0
14.09.2019 14:00:00 18,4 13,9 21 11 - - E 1031,5 20 0,0
14.09.2019 13:00:00 18,3 14,2 22 12 - - E 1032,2 15 0,0
14.09.2019 12:00:00 17,8 13,3 21 11 - - E 1032,9 28 0,0
14.09.2019 11:00:00 17,0 13,4 21 11 - - E 1033,2 28 0,0
14.09.2019 10:00:00 15,9 13,1 22 12 - - ENE 1033,4 29 0,0
14.09.2019 09:00:00 14,8 13,0 22 12 - - ENE 1033,6 25 0,0
14.09.2019 08:00:00 13,9 12,8 18 10 - - ENE 1033,7 15 0,0
14.09.2019 07:00:00 14,2 12,8 26 14 - - E 1033,6 26 0,0
14.09.2019 06:00:00 13,3 12,3 21 11 - - E 1033,8 21 0,0
14.09.2019 05:00:00 13,4 12,2 18 10 - - ENE 1034,0 22 0,0
14.09.2019 04:00:00 13,6 12,5 21 11 - - ENE 1034,3 17 0,0
14.09.2019 03:00:00 15,0 14,0 21 11 - - ENE 1034,7 19 0,0
14.09.2019 02:00:00 15,0 13,9 16 9 - - ENE 1034,5 20 0,0
14.09.2019 01:00:00 14,6 11,7 18 10 - - ENE 1034,5 30 0,0
14.09.2019 00:00:00 13,8 9,2 18 10 - - NE 1034,7 50 0,0
13.09.2019 23:00:00 15,0 11,2 11 6 - - N 1034,9 40 0,0
13.09.2019 22:00:00 15,2 12,2 8 4 - - NNW 1035,2 30 0,0
13.09.2019 21:00:00 15,3 12,5 5 3 - - NNW 1035,2 30 0,0
13.09.2019 20:00:00 16,0 12,1 2 1 - - W 1034,8 27 0,0
13.09.2019 19:00:00 16,8 10,9 2 1 - - SW 1034,4 35 0,0
13.09.2019 18:00:00 17,4 11,4 5 3 - - SW 1034,3 35 0,0
13.09.2019 17:00:00 18,6 11,1 5 3 - - S 1034,5 40 0,0
13.09.2019 16:00:00 18,4 12,0 11 6 - - ESE 1034,4 45 0,0
13.09.2019 15:00:00 18,5 11,1 13 7 - - SE 1034,8 20 0,0
13.09.2019 14:00:00 18,7 11,3 13 7 - - ESE 1034,7 45 0,0
13.09.2019 13:00:00 18,7 10,5 18 10 - - ENE 1035,0 35 0,0
13.09.2019 12:00:00 17,8 11,0 21 11 - - NE 1035,0 40 0,0
13.09.2019 11:00:00 16,4 9,8 24 13 - - NE 1035,2 40 0,0
13.09.2019 10:00:00 15,1 9,7 24 13 - - NE 1034,9 45 0,0
13.09.2019 09:00:00 14,2 10,1 28 15 - - NE 1034,1 40 0,0
13.09.2019 08:00:00 14,5 10,7 26 14 - - NE 1033,3 40 0,0
13.09.2019 07:00:00 13,9 11,4 29 16 - - NE 1032,7 45 0,0
13.09.2019 06:00:00 14,7 14,1 21 11 - - N 1032,3 4,8 0,2
13.09.2019 05:00:00 16,8 16,7 15 8 - - WNW 1031,6 23 0,0
13.09.2019 04:00:00 16,9 16,7 15 8 - - W 1031,2 12 0,0
13.09.2019 03:00:00 16,8 16,7 21 11 - - W 1031,1 10 0,0
13.09.2019 02:00:00 16,8 16,6 28 15 - - W 1030,9 9 0,0
13.09.2019 01:00:00 16,7 16,5 28 15 - - WSW 1030,7 9 0,0
13.09.2019 00:00:00 16,7 16,5 34 18 - - W 1030,5 9 0,0
12.09.2019 23:00:00 16,8 16,4 34 18 50 27 WSW 1030,5 9 0,0
12.09.2019 22:00:00 16,9 16,2 37 20 54 29 W 1030,2 9 0,0
12.09.2019 21:00:00 16,8 16,0 41 22 52 28 W 1029,9 9 0,0
12.09.2019 20:00:00 16,7 16,0 37 20 54 29 WSW 1029,6 10 0,0
12.09.2019 19:00:00 17,1 16,0 42 23 57 31 WSW 1029,6 10 0,0
12.09.2019 18:00:00 17,7 16,3 37 20 50 27 WSW 1029,4 11 0,0
12.09.2019 17:00:00 17,4 16,0 35 19 50 27 WSW 1029,4 12 0,0
12.09.2019 16:00:00 18,7 16,2 31 17 - - WSW 1029,5 13 0,0
12.09.2019 15:00:00 19,2 16,9 34 18 48 26 WSW 1029,8 20 0,0
12.09.2019 14:00:00 18,0 16,3 31 17 46 25 WSW 1029,9 16 0,0
12.09.2019 13:00:00 17,4 16,4 34 18 46 25 WSW 1029,7 17 0,0
12.09.2019 12:00:00 18,1 16,9 35 19 48 26 WSW 1029,5 17 0,0
12.09.2019 11:00:00 17,5 16,6 34 18 - - WSW 1029,4 16 0,0
12.09.2019 10:00:00 17,2 17,0 29 16 - - WSW 1029,1 15 0,0
12.09.2019 09:00:00 16,7 16,7 35 19 - - WSW 1028,4 7 0,0
12.09.2019 08:00:00 16,6 16,6 35 19 - - WSW 1027,8 9 0,0
12.09.2019 07:00:00 16,6 16,6 28 15 - - W 1027,4 2,9 0,0
12.09.2019 06:00:00 16,6 16,6 28 15 - - W 1026,7 7 0,0
12.09.2019 05:00:00 16,6 16,6 29 16 - - WSW 1026,6 0,5 0,0
12.09.2019 04:00:00 16,8 16,7 26 14 - - WSW 1026,6 2,2 0,0
12.09.2019 03:00:00 16,7 16,5 26 14 - - WSW 1026,1 8 0,0
12.09.2019 02:00:00 16,4 15,9 24 13 - - W 1025,9 30 0,0
12.09.2019 01:00:00 16,8 16,6 29 16 - - W 1025,5 16 0,0
12.09.2019 00:00:00 16,9 16,7 29 16 - - W 1025,1 15 0,0
11.09.2019 23:00:00 16,8 16,6 37 20 48 26 W 1024,7 12 0,0
11.09.2019 22:00:00 16,9 16,8 35 19 46 25 W 1024,5 8 0,2

tt = temperature
td = dewpoint
ff = wind speed
fx = gusts
dd = wind direction
ppp = reduced air pressure
vv = visibility
rr = precipitation

Next stations